sat.trackr.live / text

‹ back to catalog

STARLINK-37188

NORAD 68404 · 2026-063AA

PAYLOAD ACTIVE UNKNOWN

§ Identity

Operator
Country
US
Launch date
2026-03-26
Launch site
AFWTR
Launch vehicle
Mass (kg)
RCS (m²)

Purposes: comms

External: N2YO · Heavens-Above · Gunter

§ Orbital elements

Epoch: 2026-09-19T07:51:55.894464Z

Period
93.91 min
Inclination
97.2859°
Eccentricity
0.0001100
Mean motion
15.33420742 rev/d
Perigee alt
464.9 km
Apogee alt
466.4 km
Semi-major
6,843.8 km
B*
6.7749e-4
RAAN
43.2803°
Arg perigee
82.9066°
Mean anomaly
277.2302°
Rev number
2,757

§ Raw data

STARLINK-371881 68404U 26063AA  26262.32773026  .00021844  00000+0  67749-3 0  99912 68404  97.2859  43.2803 0001100  82.9066 277.2302 15.33420742 27572

JSON: /api/v1/satellites/68404 · /tle

For live sub-satellite position, see the globe view (requires WebGL).

§ Visibility from observer

Set your observer location to see the next 7 days of passes ≥ 10°. The values pass through the URL so the page stays shareable.

No JS? Fill the form by hand. The geolocation button needs JavaScript.